Location: Newark
(44.3248°N, 23.7839°E)
Time: 17:41:37
(UTC+00:00)

STARS - Pass Details

Date: 29 April 2024
Orbit: 604 x 620 km, 98.1° (Epoch: 28 May)

Event Time Altitude Azimuth Distance (km) Brightness Sun altitude
Rises 21:22:46 0° 31° (NNE) 2,888 ? -29.3°
Reaches altitude 10° 21:25:44 10° 53° (NE) 1,973 ? -29.5°
Enters shadow 21:26:05 11° 57° (ENE) 1,893 ? -29.5°
